Latest Weather Observations for Geraldton Airport

IDW60801

Issued at 9:35 pm WST Friday 1 August 2014 (issued every 30 minutes, with the page automatically refreshed every 10 minutes)

About weather observations | Map of weather stations | Latest weather observations for WA | Other Formats
Station Details ID: 008315 Name: GERALDTON AIRPORT Lat: -28.80 Lon: 114.70 Height: 29.7 m
Data from the previous 72 hours. | See also: Recent months at Geraldton Airport
Date/Time
WST
Temp
°C
App
Temp
°C
Dew
Point
Rel
Hum
%
Delta-T
°C
Wind Press
QNH
hPa
Press
MSL
hPa
Rain
since 9 am
mm
Dir
 
Spd
km/h
Gust
km/h
Spd
kts
Gust
kts
01/09:30pm 8.8 6.6 8.0 95 0.4 NE 9 9 5 5 1023.4 - 0.0
01/09:00pm 8.6 6.9 7.6 93 0.5 E 6 9 3 5 1023.4 1023.5 0.0
01/08:30pm 9.8 9.6 9.0 95 0.4 CALM 0 0 0 0 1023.4 - 0.0
01/08:00pm 10.2 10.0 9.2 93 0.5 CALM 0 0 0 0 1023.2 - 0.0
01/07:30pm 11.6 11.7 10.3 92 0.7 CALM 0 0 0 0 1022.7 - 0.0
01/07:00pm 13.3 12.4 10.8 85 1.3 SSE 6 7 3 4 1022.4 - 0.0
01/06:30pm 14.5 13.4 10.7 78 2.0 SE 7 9 4 5 1022.2 - 0.0
01/06:00pm 15.6 15.0 11.7 77 2.1 S 6 7 3 4 1022.1 1022.2 0.0
01/05:30pm 17.2 15.6 11.6 69 3.1 S 11 13 6 7 1021.9 - 0.0
01/05:00pm 18.9 16.4 11.0 60 4.3 SSW 15 17 8 9 1021.8 - 0.0
01/04:30pm 19.9 16.7 10.0 53 5.3 SSW 17 22 9 12 1021.6 - 0.0
01/04:00pm 20.7 17.4 9.7 49 5.9 SW 17 22 9 12 1021.7 - 0.0
01/03:30pm 21.5 18.8 9.1 45 6.6 SSW 13 20 7 11 1021.4 - 0.0
01/03:00pm 23.1 21.9 6.4 34 8.5 ESE 2 7 1 4 1021.3 1021.4 0.0
01/02:30pm 22.7 20.3 5.3 32 8.7 W 7 11 4 6 1021.4 - 0.0
01/02:00pm 22.0 19.8 7.9 40 7.4 NE 9 13 5 7 1021.4 - 0.0
01/01:30pm 21.6 18.8 8.4 42 6.9 NNE 13 17 7 9 1021.6 - 0.0
01/01:00pm 20.8 16.7 7.8 43 6.7 NNE 19 24 10 13 1021.8 - 0.0
01/12:30pm 20.3 15.7 8.0 45 6.4 NE 22 28 12 15 1022.1 - 0.0
01/12:00pm 19.6 15.0 8.0 47 6.0 NE 22 30 12 16 1022.6 1022.7 0.0
01/11:30am 18.8 14.1 7.6 48 5.7 NE 22 26 12 14 1023.0 - 0.0
01/11:00am 17.4 12.1 6.7 49 5.3 NE 24 30 13 16 1023.3 - 0.0
01/10:30am 16.6 11.2 6.3 50 5.0 NE 24 30 13 16 1023.7 - 0.0
01/10:00am 15.3 9.3 5.3 51 4.7 NE 26 35 14 19 1023.6 - 0.0
01/09:30am 14.5 9.0 5.9 56 4.1 NE 24 32 13 17 1023.5 - 0.0
01/09:00am 12.8 8.1 5.3 60 3.5 NE 19 28 10 15 1023.4 1023.5 0.2
01/08:30am 10.4 4.7 4.8 68 2.5 NE 24 33 13 18 1023.3 - 0.2
01/08:00am 9.2 3.4 4.2 71 2.2 NE 24 33 13 18 1023.0 - 0.2
01/07:30am 7.8 1.9 4.1 77 1.6 NE 24 30 13 16 1022.9 - 0.2
01/07:00am 7.2 1.6 3.7 78 1.5 NE 22 28 12 15 1022.6 - 0.2
01/06:30am 7.2 2.1 4.2 81 1.3 NNE 20 24 11 13 1022.4 - 0.2
01/06:00am 8.2 3.7 4.0 75 1.8 NE 17 22 9 12 1022.1 1022.2 0.2
01/05:30am 7.1 3.8 4.3 82 1.2 NNE 11 13 6 7 1022.1 - 0.2
01/05:00am 8.5 3.5 4.4 75 1.8 NE 20 26 11 14 1022.0 - 0.2
01/04:30am 9.4 4.9 4.4 71 2.2 ENE 17 24 9 13 1022.0 - 0.2
01/04:00am 8.7 4.6 4.6 75 1.8 NE 15 19 8 10 1022.2 - 0.2
01/03:30am 8.9 4.5 4.6 74 1.9 NNE 17 19 9 10 1022.5 - 0.2
01/03:00am 8.9 4.9 4.9 76 1.8 NNE 15 20 8 11 1022.6 1022.7 0.2
01/02:30am 8.5 4.9 4.9 78 1.6 N 13 17 7 9 1022.9 - 0.2
01/02:00am 10.0 6.8 4.9 70 2.3 NE 11 17 6 9 1023.1 - 0.2
01/01:30am 8.8 7.3 5.0 77 1.7 WSW 2 6 1 3 1023.5 - 0.2
01/01:00am 9.7 5.0 5.0 72 2.1 ESE 19 24 10 13 1023.6 - 0.2
01/12:30am 9.0 5.5 5.3 77 1.7 SE 13 17 7 9 1023.8 - 0.2
01/12:00am 9.4 5.6 5.7 78 1.7 SE 15 19 8 10 1023.9 1024.0 0.2
 
Date/Time
WST
Temp
°C
App
Temp
°C
Dew
Point
Rel
Hum
%
Delta-T
°C
Wind Press
QNH
hPa
Press
MSL
hPa
Rain
since 9 am
mm
Dir
 
Spd
km/h
Gust
km/h
Spd
kts
Gust
kts
31/11:30pm 9.8 5.2 5.8 76 1.8 SE 19 24 10 13 1024.1 - 0.2
31/11:00pm 9.6 5.5 6.1 79 1.6 SE 17 20 9 11 1024.4 - 0.2
31/10:30pm 9.6 5.5 6.4 80 1.5 ESE 17 20 9 11 1024.6 - 0.2
31/10:00pm 10.0 6.1 7.2 83 1.3 ESE 17 20 9 11 1024.5 - 0.2
31/09:30pm 9.0 5.5 7.3 89 0.8 ESE 15 19 8 10 1024.6 - 0.2
31/09:00pm 8.4 6.1 7.3 93 0.5 ESE 9 11 5 6 1024.7 1024.8 0.2
31/08:30pm 9.4 7.3 8.4 93 0.5 SSE 9 11 5 6 1024.5 - 0.2
31/08:00pm 10.0 7.6 8.8 92 0.6 SE 11 11 6 6 1024.4 - 0.2
31/07:30pm 10.5 7.8 9.1 91 0.7 SE 13 13 7 7 1024.2 - 0.2
31/07:00pm 11.3 8.8 9.7 90 0.8 SE 13 15 7 8 1024.0 - 0.2
31/06:30pm 12.6 9.8 10.1 85 1.3 SSE 15 17 8 9 1023.7 - 0.2
31/06:00pm 14.0 11.3 10.4 79 1.9 S 15 19 8 10 1023.3 1023.4 0.2
31/05:30pm 15.8 12.9 11.0 73 2.6 SSE 17 20 9 11 1022.9 - 0.2
31/05:00pm 17.3 14.8 10.9 66 3.4 SSE 15 22 8 12 1022.7 - 0.2
31/04:30pm 17.9 15.1 11.2 65 3.6 SSE 17 22 9 12 1022.5 - 0.2
31/04:00pm 18.8 15.3 10.8 59 4.3 SSE 20 28 11 15 1022.4 - 0.2
31/03:30pm 18.3 14.7 10.7 61 4.1 SSE 20 26 11 14 1022.3 - 0.2
31/03:00pm 18.1 15.0 10.2 60 4.2 SE 17 22 9 12 1022.2 1022.3 0.2
31/02:30pm 19.5 17.0 10.9 57 4.7 E 15 20 8 11 1022.3 - 0.2
31/02:00pm 19.1 16.3 10.1 56 4.8 ESE 15 19 8 10 1022.7 - 0.2
31/01:30pm 18.0 14.3 9.6 58 4.4 ESE 19 26 10 14 1022.8 - 0.2
31/01:00pm 18.8 14.7 10.0 56 4.7 ESE 22 33 12 18 1023.1 - 0.2
31/12:30pm 19.2 15.0 9.8 54 5.0 ESE 22 30 12 16 1023.6 - 0.2
31/12:00pm 18.4 14.6 9.9 57 4.5 SE 20 26 11 14 1024.1 1024.2 0.2
31/11:30am 18.3 14.7 11.9 66 3.5 E 22 32 12 17 1024.4 - 0.2
31/11:00am 17.9 14.2 11.5 66 3.5 ESE 22 30 12 16 1025.0 - 0.0
31/10:30am 17.3 14.3 11.9 70 3.0 E 19 24 10 13 1025.2 - 0.0
31/10:00am 16.4 13.8 12.0 75 2.4 E 17 20 9 11 1025.4 - 0.0
31/09:30am 14.9 14.3 11.6 80 1.8 NNE 6 9 3 5 1025.3 - 0.0
31/09:00am 12.8 11.6 10.3 85 1.3 NE 7 9 4 5 1025.2 1025.3 0.2
31/08:30am 11.0 9.2 9.4 90 0.8 NNE 9 13 5 7 1024.9 - 0.2
31/08:00am 9.5 7.5 8.5 93 0.5 NE 9 11 5 6 1024.6 - 0.2
31/07:30am 7.4 5.9 6.9 97 0.2 ENE 4 11 2 6 1024.3 - 0.2
31/07:00am 7.7 4.2 7.0 95 0.3 NE 15 17 8 9 1023.8 - 0.2
31/06:30am 8.3 5.6 7.4 94 0.4 NE 11 13 6 7 1023.5 - 0.2
31/06:00am 8.6 5.2 7.6 93 0.5 NNE 15 17 8 9 1023.1 1023.2 0.2
31/05:30am 8.0 4.9 7.4 96 0.3 NE 13 15 7 8 1022.8 - 0.2
31/05:00am 8.4 5.4 7.7 95 0.3 NE 13 15 7 8 1022.6 - 0.2
31/04:30am 9.1 5.8 8.1 93 0.5 NNE 15 17 8 9 1022.6 - 0.2
31/04:00am 10.0 7.7 9.0 93 0.5 NNE 11 15 6 8 1022.7 - 0.2
31/03:30am 10.2 6.8 9.0 92 0.6 NNE 17 20 9 11 1023.0 - 0.2
31/03:00am 10.3 6.9 9.1 92 0.6 NE 17 20 9 11 1022.9 1023.0 0.2
31/02:30am 10.5 7.8 9.1 91 0.7 NNE 13 19 7 10 1022.6 - 0.2
31/02:00am 10.3 7.2 8.9 91 0.7 NNE 15 17 8 9 1022.7 - 0.2
31/01:30am 9.0 5.3 8.0 93 0.5 NNE 17 20 9 11 1022.6 - 0.2
31/01:00am 8.5 5.1 7.7 95 0.4 NNE 15 17 8 9 1022.6 - 0.2
31/12:30am 8.8 5.5 8.0 95 0.4 NNE 15 19 8 10 1022.6 - 0.2
31/12:00am 9.7 6.9 8.5 92 0.6 NNE 13 15 7 8 1022.7 1022.8 0.2
 
Date/Time
WST
Temp
°C
App
Temp
°C
Dew
Point
Rel
Hum
%
Delta-T
°C
Wind Press
QNH
hPa
Press
MSL
hPa
Rain
since 9 am
mm
Dir
 
Spd
km/h
Gust
km/h
Spd
kts
Gust
kts
30/11:30pm 9.8 7.1 8.8 93 0.5 NNE 13 13 7 7 1022.8 - 0.2
30/11:00pm 10.1 7.1 9.1 93 0.5 NNE 15 15 8 8 1023.0 - 0.2
30/10:30pm 10.9 8.3 9.5 91 0.7 NNE 13 15 7 8 1023.2 - 0.2
30/10:00pm 10.6 7.7 9.5 93 0.6 NNE 15 17 8 9 1023.2 - 0.2
30/09:30pm 10.8 8.2 9.5 92 0.7 NNE 13 15 7 8 1023.3 - 0.2
30/09:00pm 10.1 8.2 8.9 92 0.6 NNE 9 11 5 6 1023.3 1023.4 0.2
30/08:30pm 10.6 8.7 9.2 91 0.7 NNE 9 11 5 6 1023.1 - 0.2
30/08:00pm 11.6 9.9 10.0 90 0.8 E 9 9 5 5 1023.1 - 0.2
30/07:30pm 13.2 12.4 10.9 86 1.2 ESE 6 7 3 4 1023.1 - 0.2
30/07:00pm 14.1 12.5 10.1 77 2.1 SW 9 11 5 6 1022.9 - 0.2
30/06:30pm 14.1 12.0 9.7 75 2.3 WSW 11 13 6 7 1023.0 - 0.2
30/06:00pm 15.2 12.8 10.0 71 2.7 WSW 13 15 7 8 1023.0 1023.1 0.2
30/05:30pm 16.1 13.4 10.4 69 3.0 WSW 15 20 8 11 1022.9 - 0.2
30/05:00pm 17.6 14.2 10.7 64 3.7 SW 19 22 10 12 1022.5 - 0.2
30/04:30pm 18.8 15.4 10.4 58 4.5 SW 19 22 10 12 1022.3 - 0.2
30/04:00pm 19.2 16.1 11.5 61 4.2 SW 19 24 10 13 1022.2 - 0.2
30/03:30pm 19.3 15.6 11.5 60 4.3 SW 22 28 12 15 1022.2 - 0.2
30/03:00pm 19.7 16.4 11.6 59 4.5 WSW 20 28 11 15 1022.2 1022.3 0.2
30/02:30pm 20.3 17.3 10.5 53 5.3 WSW 17 22 9 12 1022.1 - 0.2
30/02:00pm 20.2 19.1 10.6 54 5.2 S 7 11 4 6 1021.9 - 0.2
30/01:30pm 19.5 17.4 9.6 52 5.3 SW 11 17 6 9 1022.0 - 0.2
30/01:00pm 20.5 19.7 11.0 54 5.2 NW 6 11 3 6 1022.4 - 0.2
30/12:30pm 20.3 19.5 11.0 55 5.1 ENE 6 13 3 7 1022.7 - 0.2
30/12:00pm 18.3 17.5 11.6 65 3.7 ESE 7 11 4 6 1023.0 1023.1 0.0
30/11:30am 18.8 17.4 12.3 66 3.6 NE 11 15 6 8 1023.2 - 0.0
30/11:00am 18.3 17.6 14.3 77 2.3 NE 11 15 6 8 1023.4 - 0.0
30/10:30am 16.7 15.3 13.5 81 1.8 NNE 13 17 7 9 1023.8 - 0.0
30/10:00am 15.2 12.8 12.8 85 1.3 NNE 17 20 9 11 1023.8 - 0.0
30/09:30am 13.4 10.7 11.7 89 0.9 NNE 17 20 9 11 1023.9 - 0.0
30/09:00am 12.3 9.0 10.8 90 0.8 NNE 19 26 10 14 1023.9 1024.0 0.0
30/08:30am 10.8 7.2 9.8 93 0.5 NNE 19 24 10 13 1023.5 - 0.0
30/08:00am 9.4 5.5 8.8 96 0.3 NNE 19 24 10 13 1023.4 - 0.0
30/07:30am 8.0 3.6 7.6 97 0.2 NNE 20 24 11 13 1023.3 - 0.0
30/07:00am 8.1 3.9 7.5 96 0.3 NNE 19 26 10 14 1023.0 - 0.0
30/06:30am 7.6 3.3 7.0 96 0.3 NNE 19 24 10 13 1023.1 - 0.0
30/06:00am 8.2 4.0 7.4 95 0.4 NNE 19 20 10 11 1022.8 1022.9 0.0
30/05:30am 7.7 3.4 7.1 96 0.3 NNE 19 22 10 12 1022.8 - 0.0
30/05:00am 7.7 3.8 7.0 95 0.3 NNE 17 20 9 11 1022.5 - 0.0
30/04:30am 7.8 3.9 7.3 97 0.2 NNE 17 20 9 11 1022.6 - 0.0
30/04:00am 7.8 3.9 7.2 96 0.3 NNE 17 20 9 11 1022.5 - 0.0
30/03:30am 8.0 4.1 7.2 95 0.4 NNE 17 20 9 11 1022.7 - 0.0
30/03:00am 8.0 4.1 7.3 95 0.3 NNE 17 19 9 10 1022.9 1023.0 0.0
30/02:30am 8.2 4.4 7.6 96 0.3 NNE 17 19 9 10 1022.8 - 0.0
30/02:00am 8.6 4.8 7.7 94 0.4 NNE 17 20 9 11 1023.2 - 0.0
30/01:30am 8.6 5.2 7.8 95 0.4 NNE 15 17 8 9 1023.4 - 0.0
30/01:00am 8.3 5.3 7.7 96 0.3 NE 13 15 7 8 1023.4 - 0.0
30/12:30am 8.9 5.6 8.1 95 0.4 NNE 15 17 8 9 1023.4 - 0.0
30/12:00am 9.3 6.1 8.5 95 0.4 NNE 15 17 8 9 1023.4 1023.5 0.0
 
Date/Time
WST
Temp
°C
App
Temp
°C
Dew
Point
Rel
Hum
%
Delta-T
°C
Wind Press
QNH
hPa
Press
MSL
hPa
Rain
since 9 am
mm
Dir
 
Spd
km/h
Gust
km/h
Spd
kts
Gust
kts
29/11:30pm 9.3 6.1 8.5 95 0.4 NNE 15 17 8 9 1023.7 - 0.0
29/11:00pm 9.0 6.1 8.2 95 0.4 NNE 13 15 7 8 1023.7 - 0.0
29/10:30pm 9.3 6.5 8.5 95 0.4 NNE 13 15 7 8 1023.8 - 0.0
29/10:00pm 8.6 6.3 7.6 93 0.5 NE 9 11 5 6 1023.9 - 0.0

Other Formats:

Comma delimited format used in spreadsheet applications
http://www.bom.gov.au/fwo/IDW60801/IDW60801.94403.axf

JavaScript Object Notation format (JSON) in row-major order
http://www.bom.gov.au/fwo/IDW60801/IDW60801.94403.json